Flag for French Polynesia Weather past 2 weeks in Gambier Islands, French Polynesia

Now
75 °F

Overcast.


Feels Like: 72 °F
Forecast: 73 / 78 °F
Wind: 9 mph from Southwest

Location: Rikitea

Current Time: May 24, 2015 at 7:01:42 PM

Latest Report: May 24, 2015 at 5:00 PM


Visibility: 19 mi

Pressure: 30.11 "Hg

Humidity: 97%

Dew point: 74 °F

Location of Gambier IslandsLocation

Historic Weather in Gambier Islands — Graph

°F

Gambier Islands temperature yesterday

Maximum temperature yesterday: 79 °F (at 11:00 AM)
Minimum temperature yesterday: 73 °F (at 2:00 AM)
Average temperature yesterday: 76 °F

Past Weeks' High & Low Weather Summary

 TemperatureHumidityPressure
High81 °F (May 11, 10:00 AM)100% (May 12, 6:00 AM)30.18 "Hg (May 12, 6:00 AM)
Low70 °F (May 17, 12:00 AM)63% (May 10, 5:00 PM)29.84 "Hg (May 11, 4:00 PM)
Average76 °F91%30.01 "Hg
* Reported May 9 5:00 PM — May 24 5:00 PM, Gambier Islands, Weather by CustomWeather, © 2015

Note: Actual official high and low records may vary slightly from our data, if they occured in-between our weather recording intervals... More about our weather records

Advertising

Gambier Islands weather history for previous 24 hours

 ConditionsComfort  
Time TempWeatherWind HumidityBarometerVisibility
5:00 PM
Sun, May 24
75 °FOvercast.9 mph97%30.11 "Hg19 mi
4:00 PM75 °FPartly sunny.6 mph93%30.10 "Hg19 mi
3:00 PM77 °FOvercast.3 mph88%30.10 "Hg25 mi
2:00 PM78 °FOvercast.3 mph86%30.11 "Hg25 mi
1:00 PM78 °FOvercast.5 mph87%30.12 "Hg25 mi
11:00 AM76 °FOvercast.3 mph94%30.17 "Hg25 mi
10:00 AM79 °FPartly sunny.1 mph83%30.18 "Hg25 mi
9:00 AM78 °FOvercast.3 mph85%30.18 "Hg19 mi
8:00 AM75 °FOvercast.No wind92%30.17 "Hg19 mi
7:00 AM74 °FOvercast.3 mph96%30.15 "Hg19 mi
6:00 AM72 °FPassing clouds.1 mph97%30.14 "Hg19 mi
5:00 AM72 °FMild.2 mph98%30.12 "HgN/A
4:00 AM73 °FMild.5 mph98%30.11 "HgN/A
3:00 AM73 °FMild.6 mph98%30.10 "HgN/A
2:00 AM72 °FMild.1 mph99%30.12 "HgN/A
1:00 AM73 °FMild.2 mph96%30.13 "HgN/A
12:00 AM73 °FMild.3 mph97%30.14 "HgN/A
11:00 PM
Sat, May 23
73 °FMild.5 mph95%30.14 "HgN/A
10:00 PM73 °FMild.3 mph97%30.16 "HgN/A
9:00 PM73 °FMild.5 mph96%30.16 "HgN/A
8:00 PM74 °FMild.3 mph97%30.16 "HgN/A
7:00 PM74 °FMild.2 mph93%30.15 "HgN/A
Weather by CustomWeather, © 2015

See weather overviewHow to use our weather pages